Regional Weather Roundup
Issued by NWS Mobile, AL

Home | Current Version | Previous Version | Text Only | Print | Product List | Glossary On
Versions: 1 2 3 4 5 6 7 8 9 10 11 12 13 14 15 16 17 18 19 20 21 22 23 24 25 26 27 28 29 30 31 32 33 34 35 36 37 38 39 40 41 42 43 44 45 46 47 48 49 50
000
ASUS44 KMOB 062112
RWRMOB
REGIONAL WEATHER ROUNDUP
NATIONAL WEATHER SERVICE MOBILE AL
400 PM CDT WED MAY 06 2015

NOTE: "FAIR" INDICATES FEW OR NO CLOUDS BELOW 12,000 FEET WITH NO
      SIGNIFICANT WEATHER AND/OR OBSTRUCTIONS TO VISIBILITY.

  * THESE STATIONS ARE PART OF THE UNIVERSITY OF SOUTH ALABAMA
    MESONET AND ARE NOT UNDER NWS OR FAA QUALITY CONTROL.

ALZ061>064-062200-
COASTAL ALABAMA

CITY           SKY/WX    TMP DP  RH WIND       PRES   REMARKS
MOBILE REG APT MOSUNNY   83  59  44 SE10      30.07S
BROOKLEY FIELD MOSUNNY   78  67  68 S10G18    30.07F
USA CAMPUS*    NOT AVBL
DOG RIVER*     NOT AVBL


CITY           SKY/WX    TMP DP  RH WIND       PRES   REMARKS
MOUNT VERNON*    N/A     81  57  44 CALM      30.04
SARALAND*      NOT AVBL
BAY MINETTE*   NOT AVBL
LOXLEY*        NOT AVBL
ROBERTSDALE*     N/A     82  59  44 S7        30.04F
FAIRHOPE*        N/A     81  57  44 SE8       30.04
ELBERTA*         N/A     81  57  44 S3        30.06F
FOLEY*         NOT AVBL
GRAND BAY*       N/A     81  64  57 SE12      30.05S
DAUPHIN ISLND* NOT AVBL
BON SCOUR NWR* NOT AVBL
GULF SHORES    SUNNY     77  66  68 SE8       30.07S

$$

ALZ051>060-062200-
INTERIOR SOUTHWEST AND SOUTH CENTRAL ALABAMA

CITY           SKY/WX    TMP DP  RH WIND       PRES   REMARKS
GREENVILLE     PTSUNNY   83  56  39 NE6       30.08F
EVERGREEN      PTSUNNY   82  57  42 E9        30.06F
CASTLEBERRY*   NOT AVBL
ATMORE*          N/A     81  59  47 E7        30.06F
DIXIE*         NOT AVBL
ANDALUSIA/OPP  CLOUDY    89  54  30 SE6       30.07
ANDALUSIA*       N/A     82  55  39 NE6       30.08F
FLORALA APT    PTSUNNY   83  56  39 VRB3      30.08F
FLORALA*         N/A     82  55  39 CALM      30.03F

$$

FLZ001>006-062200-
WESTERN FLORIDA PANHANDLE

CITY           SKY/WX    TMP DP  RH WIND       PRES   REMARKS
PENSACOLA      SUNNY     81  59  47 S12       30.06F
NAS PENSACOLA  MOSUNNY   79  64  60 S10       30.06F
MILTON         PTSUNNY   84  57  39 S10       30.05F
WHTNG S FIELD  MOSUNNY   85  57  38 S9        30.06F


CITY           SKY/WX    TMP DP  RH WIND       PRES   REMARKS
WALNUT HILL*   NOT AVBL
JAY*             N/A     82  55  39 NE6       30.05F
DUKE FIELD     MOSUNNY   83  55  38 CALM      30.05F
CRESTVIEW      PTSUNNY   89  60  37 NE9       30.06F
VALPARAISO     MOSUNNY   82  61  49 S9        30.05F
DESTIN         MOSUNNY   80  64  58 VRB7      30.06F

$$

MSZ076-079-062200-
INTERIOR SOUTHEAST MISSISSIPPI

CITY           SKY/WX    TMP DP  RH WIND       PRES   REMARKS
LEAKESVILLE*   NOT AVBL
AGRICOLA*      NOT AVBL

$$

MARINE OBSERVATIONS

STATION/POSITION TIME  TEMP    WIND        PRES    WAVE
                       AIR SEA DIR/SP/G            HT/PER
                 (UTC) (F)     (DEG/KT/KT) (MB)    (FT/S)
PASCAGOULA       2000   75     140/ 14/ 18 1018.2F
PETIT BOIS ISLND 2000   76     120/ 13/ 16 1018.7F
GRAND BAY        1900   74     140/ 13     1020.0S
KATRINA CUT      2000   74     130/ 15     1019.0F
CEDAR POINT      2000   74     140/ 13     1018.6F
E DAUPHIN ISLAND 2000   74     130/ 14/ 15 1018.1F
MIDDLE BAY LIGHT 2000   74     160/ 18     1018.3F
USCG MOBILE BAY  2000   78 74  180/ 10/ 16 1017.1
STATE DOCKS      2000   78 71              1017.9F
MEAHER PARK      2000   76     200/ 10     1017.6F
WEEKS BAY        1900   83                   N/A
FORT MORGAN      2000   75     150/ 14/ 16 1018.0F
12 S ORANGE BCH  2050   74 75  130/  8/ 10 1017.6F   4/ 6
PENSACOLA BAY    2000   84 78  200/  3/  4 1018.7F
64 S DAUPHIN ISL 2050   75 76  120/ 14/ 14 1018.0F   4/ 6
67 S FORT MORGAN 2030   74                 1018.0S

$$

SELECTED LOCATIONS ACROSS THE REGION

CITY           SKY/WX    TMP DP  RH WIND       PRES   REMARKS
NEW ORLEANS    PTSUNNY   80  66  62 NE18G24   30.02F
GULFPORT       CLOUDY    79  68  69 SE18      30.06F
PASCAGOULA AP  SUNNY     81  66  60 SE14      30.06F
PASCAGOULA*    NOT AVBL
HATTIESBURG    PTSUNNY   85  61  44 SE8       30.04F
LAUREL         MOSUNNY   82  57  42 S7        30.06F
MERIDIAN       PTSUNNY   83  56  39 VRB6      30.05F
JACKSON        PTSUNNY   82  58  43 S8G18     30.04F
MONTGOMERY     PTSUNNY   85  54  34 E5        30.08F
TROY           MOSUNNY   81  57  43 E6        30.09F
KINSTON*       NOT AVBL
GENEVA*          N/A     84  55  37 CALM      30.07F
ASHFORD*         N/A     82  55  39 NE6       30.08F
DOTHAN         MOSUNNY   84  57  39 NE8       30.10F
PANAMA CITY    CLOUDY    82  60  47 SW7       30.03F

$$



USA.gov is the U.S. government's official web portal to all federal, state and local government web resources and services.